OBJECT AS, 57206

Orbit data source: Space-Track

You're viewing an uncataloged RSO

Recently launched and/or uncataloged RSOs may have evolving metadata. Metadata may include the following, but is not limited to: Owner, Manufacturer, Bus, Motor, and Mission.

OBJECT AS, 57206 is a satellite in SSO that was launched on Tue, 27 Jun 2023 UTC via a SOYUZ-2-1B launch vehicle from the Vostochny Cosmodrome (VOSTO). Unknown objects in Earth's orbit typically refer to objects detected orbiting the Earth but have not yet been identified or cataloged. These objects could be anything from previously untracked satellites, spent rocket stages, debris from satellite collisions, or even natural meteoroids temporarily captured by Earth's gravity.

Not visible in the next 10 days
Identifier
57206, 2023-091AS
Orbit
SSO
Country
Flag of TBDTBD
Related business
None
Manufacturer
Unknown
Mission
Operational Amateur Science
Bus & Motor
Unknown
Mass
Unknown
Launch date (UTC)
2023-06-27 (3 years ago)
Launch vehicle
SOYUZ-2-1B
Launch site
Vostochny Cosmodrome (VOSTO)
Object type
Unknown
Shape & HBR
Box + 2 Pan, 0.2 m
Radar Cross Section
0.080 m², Medium (>0.1 m² and < 1m²)

Expand to show TLE details & history
Last TLE update: 6 hours ago

TLE from 6 hours ago
0 OBJECT AS
1 57206U 23091AS  26257.21910581  .00231612  00000-0  95862-3 0  9992
2 57206  97.4914 343.7682 0002036 244.8263 115.2796 15.85237397179388
Epoch: 2026-09-14T05:15Z
TLE epoch observation values (Epoch: 2026-09-14T05:15:30.741Z)
Latitude
-0.00006°
Longitude
-88.31243°
Altitude
319.414 km
Speed
7.716 km/s
True Right ascension
22h 55m 04s
True Declination
0° 00' 00"
Sunlit
Object was in full shadow at epoch
Visualization orbit readout
Latitude
Unknown
Longitude
Unknown
Altitude
Unknown
Speed
Unknown
Apparent Right ascension
Unknown
Apparent Declination
Unknown
Sunlit
N/A
Visualization observer readout
Local Sidereal Time
03:26:48
Azimuth
Unknown
Elevation
Unknown
Doppler factor
Unknown
Orbital elements
Apogee altitude
313.902 km
Perigee altitude
311.177 km
Semi-major axis
6,690.677 km
Eccentricity
0.0002
Inclination
97.4914°
RAAN
343.7682°
Arg. of periapsis
244.8263°
True anomaly
115.30069°
Mean anomaly
115.2796°
Eccentric anomaly
115.29015°
Mean motion
3.96587 °/min
Orbital period
90.77 mins
BSTAR
0.00095862
Loading maneuver chart data...
Computing Atmospheric mass density...
Loading historical data...
Loading historical data...
Loading historical data...
Loading historical data...
Loading historical data...
Loading historical data...
Loading historical data...

Documentation

Showing up to 5 results
|